Location: Br�znic
(45.9167°N, 22.6500°E)
Time: 20:54:16
(UTC+00:00)

Lacrosse 4 Rocket - Pass Details

Date: 03 March 2021
Orbit: 537 x 620 km, 68.0° (Epoch: 13 April)

Event Time Altitude Azimuth Distance (km) Brightness Sun altitude
Rises 17:33:31 0° 172° (S) 2,812 4.8 -13.8°
Reaches altitude 10° 17:36:09 10° 156° (SSE) 1,932 3.8 -14.2°
Enters shadow 17:38:05 18° 131° (SE) 1,487 3.0 -14.6°
